SBI005 UWUU-USTR

Flight info

Callsign SBI005
Flight time 0h 59m
Altitude 35000
Route IPROK3N IPROK L749 TUPKI T797 BUKOS BUKOS1M
Aircraft A320/M-SDE3FGHIRWY/LB1

Departure

Time 2026-04-30 13:49
Airport Ufa International Airport (UWUU)

Arrival

Time 2026-04-30 14:48
Airport Roshchino International Airport (USTR)
Time Latitude Longitude Altitude Speed Heading
2026-04-30 12:41 54.56506 55.88298 450 ft 0 kts 61°
2026-04-30 13:39 54.56497 55.88271 450 ft 4 kts 61°
2026-04-30 13:40 54.56484 55.88230 450 ft 4 kts 61°
2026-04-30 13:40 54.56473 55.88196 450 ft 4 kts 79°
2026-04-30 13:40 54.56477 55.88158 450 ft 4 kts 135°
2026-04-30 13:40 54.56498 55.88131 450 ft 4 kts 150°
2026-04-30 13:41 54.56504 55.88125 450 ft 0 kts 150°
2026-04-30 13:44 54.56484 55.88144 450 ft 8 kts 151°
2026-04-30 13:44 54.56439 55.88166 450 ft 6 kts 185°
2026-04-30 13:45 54.56380 55.88035 450 ft 9 kts 241°
2026-04-30 13:45 54.56342 55.87920 450 ft 13 kts 240°
2026-04-30 13:45 54.56295 55.87778 451 ft 16 kts 240°
2026-04-30 13:46 54.56235 55.87597 450 ft 18 kts 240°
2026-04-30 13:46 54.56173 55.87408 450 ft 19 kts 240°
2026-04-30 13:46 54.56107 55.87208 450 ft 20 kts 240°
2026-04-30 13:46 54.56035 55.86990 450 ft 21 kts 240°
2026-04-30 13:47 54.55960 55.86760 450 ft 22 kts 240°
2026-04-30 13:47 54.55907 55.86597 450 ft 11 kts 240°
2026-04-30 13:47 54.55875 55.86499 451 ft 8 kts 240°
2026-04-30 13:47 54.55850 55.86424 451 ft 6 kts 241°
2026-04-30 13:48 54.55847 55.86355 450 ft 6 kts 300°
2026-04-30 13:48 54.55872 55.86328 450 ft 0 kts 330°
2026-04-30 13:48 54.55880 55.86319 451 ft 15 kts 330°
2026-04-30 13:49 54.56233 55.85980 452 ft 96 kts 331°
2026-04-30 13:49 54.57007 55.85243 496 ft 152 kts 332°
2026-04-30 13:49 54.57923 55.84381 1243 ft 148 kts 333°
2026-04-30 13:49 54.58830 55.83548 1976 ft 149 kts 333°
2026-04-30 13:50 54.59738 55.82685 2650 ft 148 kts 332°
2026-04-30 13:50 54.61540 55.80972 3785 ft 158 kts 332°
2026-04-30 13:50 54.62569 55.79963 4028 ft 183 kts 331°
2026-04-30 13:51 54.63743 55.78819 4282 ft 206 kts 331°
2026-04-30 13:51 54.65080 55.77520 4560 ft 234 kts 331°
2026-04-30 13:51 54.66573 55.76070 4996 ft 257 kts 330°
2026-04-30 13:51 54.68153 55.74524 5796 ft 264 kts 330°
2026-04-30 13:52 54.69765 55.72944 6671 ft 268 kts 330°
2026-04-30 13:52 54.71383 55.71360 7489 ft 273 kts 330°
2026-04-30 13:52 54.73071 55.69780 8297 ft 279 kts 337°
2026-04-30 13:52 54.74987 55.69119 9089 ft 286 kts
2026-04-30 13:53 54.76935 55.69908 9873 ft 293 kts 27°
2026-04-30 13:53 54.78553 55.72077 10511 ft 302 kts 50°
2026-04-30 13:53 54.79843 55.75124 10769 ft 325 kts 56°
2026-04-30 13:53 54.81166 55.78472 11024 ft 346 kts 57°
2026-04-30 13:54 54.82531 55.81985 11626 ft 355 kts 57°
2026-04-30 13:54 54.83900 55.85515 12319 ft 360 kts 57°
2026-04-30 13:54 54.85308 55.89136 13011 ft 365 kts 57°
2026-04-30 13:54 54.86744 55.92812 13716 ft 370 kts 56°
2026-04-30 13:55 54.88204 55.96528 14306 ft 375 kts 56°
2026-04-30 13:55 54.89685 56.00294 14897 ft 380 kts 57°
2026-04-30 13:55 54.91185 56.04111 15485 ft 385 kts 57°
2026-04-30 13:55 54.92706 56.07985 16071 ft 390 kts 58°
2026-04-30 13:56 54.94245 56.11912 16647 ft 395 kts 58°
2026-04-30 13:56 54.95799 56.15890 17214 ft 400 kts 59°
2026-04-30 13:56 54.97348 56.19868 17759 ft 405 kts 59°
2026-04-30 13:56 54.98938 56.23957 18313 ft 410 kts 59°
2026-04-30 13:57 55.00542 56.28099 18813 ft 414 kts 59°
2026-04-30 13:57 55.02159 56.32281 19299 ft 418 kts 59°
2026-04-30 13:57 55.03791 56.36503 19781 ft 422 kts 59°
2026-04-30 13:57 55.05440 56.40773 20252 ft 426 kts 59°
2026-04-30 13:58 55.07100 56.45083 20731 ft 429 kts 60°
2026-04-30 13:58 55.09509 56.54459 21647 ft 426 kts 81°
2026-04-30 13:58 55.10093 56.59515 22109 ft 426 kts 85°
2026-04-30 13:59 55.10623 56.64634 22562 ft 430 kts 85°
2026-04-30 13:59 55.11155 56.69785 23012 ft 433 kts 85°
2026-04-30 13:59 55.11693 56.74983 23459 ft 437 kts 85°
2026-04-30 13:59 55.12235 56.80217 23850 ft 440 kts 85°
2026-04-30 14:00 55.12781 56.85497 24211 ft 443 kts 85°
2026-04-30 14:00 55.13882 56.96165 24921 ft 448 kts 85°
2026-04-30 14:00 55.14422 57.01467 25258 ft 451 kts 86°
2026-04-30 14:01 55.14968 57.06881 25611 ft 454 kts 86°
2026-04-30 14:01 55.15514 57.12324 25962 ft 456 kts 86°
2026-04-30 14:01 55.16059 57.17803 26308 ft 459 kts 86°
2026-04-30 14:01 55.16608 57.23317 26657 ft 461 kts 86°
2026-04-30 14:02 55.17159 57.28861 26985 ft 464 kts 86°
2026-04-30 14:02 55.17713 57.34442 27310 ft 467 kts 86°
2026-04-30 14:02 55.18268 57.40053 27633 ft 469 kts 86°
2026-04-30 14:02 55.18818 57.45616 27948 ft 472 kts 87°
2026-04-30 14:03 55.19372 57.51291 28255 ft 474 kts 87°
2026-04-30 14:03 55.19921 57.57006 28512 ft 478 kts 87°
2026-04-30 14:03 55.20469 57.62758 28738 ft 481 kts 87°
2026-04-30 14:03 55.21022 57.68542 29020 ft 483 kts 87°
2026-04-30 14:04 55.21579 57.74361 29310 ft 486 kts 87°
2026-04-30 14:04 55.22136 57.80211 29592 ft 488 kts 87°
2026-04-30 14:04 55.22694 57.86097 29869 ft 491 kts 87°
2026-04-30 14:04 55.23250 57.92006 30140 ft 493 kts 88°
2026-04-30 14:05 55.23794 57.97859 30380 ft 494 kts 88°
2026-04-30 14:05 55.24338 58.03800 30709 ft 494 kts 88°
2026-04-30 14:05 55.24882 58.09734 31024 ft 493 kts 88°
2026-04-30 14:05 55.25428 58.15675 31318 ft 494 kts 88°
2026-04-30 14:06 55.25977 58.21618 31632 ft 494 kts 88°
2026-04-30 14:06 55.27074 58.33500 32291 ft 493 kts 88°
2026-04-30 14:07 55.28141 58.45281 32957 ft 492 kts 88°
2026-04-30 14:07 55.28673 58.51203 33288 ft 491 kts 89°
2026-04-30 14:07 55.29201 58.57127 33611 ft 491 kts 89°
2026-04-30 14:08 55.30244 58.68949 34238 ft 490 kts 89°
2026-04-30 14:08 55.30759 58.74867 34480 ft 491 kts 89°
2026-04-30 14:08 55.31784 58.86717 34954 ft 491 kts 89°
2026-04-30 14:09 55.32289 58.92567 35064 ft 491 kts 89°
2026-04-30 14:09 55.32798 58.98496 35089 ft 491 kts 89°
2026-04-30 14:10 55.34308 59.16277 35092 ft 490 kts 89°
2026-04-30 14:10 55.35293 59.28119 35076 ft 490 kts 89°
2026-04-30 14:11 55.36265 59.39932 35087 ft 492 kts 89°
2026-04-30 14:11 55.37231 59.51836 35086 ft 492 kts 90°
2026-04-30 14:12 55.38187 59.63736 35099 ft 492 kts 90°
2026-04-30 14:12 55.39123 59.75647 35093 ft 491 kts 90°
2026-04-30 14:13 55.39732 59.87454 35068 ft 486 kts 96°
2026-04-30 14:13 55.39968 59.99307 35071 ft 484 kts 97°
2026-04-30 14:14 55.40167 60.11169 35080 ft 486 kts 97°
2026-04-30 14:14 55.40469 60.23071 35082 ft 488 kts 96°
2026-04-30 14:15 55.40815 60.34912 35086 ft 488 kts 96°
2026-04-30 14:15 55.41138 60.46834 35066 ft 488 kts 97°
2026-04-30 14:16 55.41423 60.58770 35099 ft 489 kts 97°
2026-04-30 14:16 55.41698 60.70709 35105 ft 488 kts 97°
2026-04-30 14:17 55.41964 60.82561 35107 ft 489 kts 95°
2026-04-30 14:17 55.42417 60.88568 35107 ft 501 kts 86°
2026-04-30 14:17 55.43202 60.94558 35106 ft 502 kts 85°
2026-04-30 14:18 55.44798 61.06536 35087 ft 503 kts 85°
2026-04-30 14:18 55.47143 61.24561 35088 ft 504 kts 85°
2026-04-30 14:19 55.49781 61.36104 35092 ft 523 kts 61°
2026-04-30 14:19 55.52012 61.41215 35092 ft 530 kts 50°
2026-04-30 14:20 55.57440 61.50088 35093 ft 533 kts 42°
2026-04-30 14:20 55.65536 61.63538 35081 ft 532 kts 50°
2026-04-30 14:21 55.67778 61.68689 35086 ft 525 kts 64°
2026-04-30 14:21 55.69409 61.74327 35091 ft 518 kts 73°
2026-04-30 14:22 55.73179 61.92132 35094 ft 524 kts 64°
2026-04-30 14:22 55.77514 62.02220 35056 ft 501 kts 51°
2026-04-30 14:22 55.79799 62.06800 34949 ft 489 kts 50°
2026-04-30 14:23 55.84310 62.15585 34757 ft 476 kts 50°
2026-04-30 14:23 55.88369 62.24711 34586 ft 470 kts 64°
2026-04-30 14:24 55.91428 62.35125 34400 ft 484 kts 71°
2026-04-30 14:24 55.92894 62.40609 34285 ft 495 kts 70°
2026-04-30 14:25 55.96105 62.51772 33342 ft 508 kts 66°
2026-04-30 14:25 55.99620 62.62711 33100 ft 508 kts 64°
2026-04-30 14:26 56.03168 62.73526 32873 ft 508 kts 65°
2026-04-30 14:26 56.04919 62.79005 32749 ft 507 kts 65°
2026-04-30 14:26 56.08339 62.90020 32503 ft 505 kts 67°
2026-04-30 14:27 56.09607 62.95775 32371 ft 490 kts 85°
2026-04-30 14:27 56.10226 63.01741 32264 ft 487 kts 88°
2026-04-30 14:27 56.10801 63.07715 32154 ft 487 kts 87°
2026-04-30 14:28 56.12934 63.19415 31929 ft 503 kts 68°
2026-04-30 14:28 56.14729 63.24735 31817 ft 509 kts 57°
2026-04-30 14:28 56.16973 63.29673 31697 ft 511 kts 51°
2026-04-30 14:28 56.19289 63.34515 31582 ft 511 kts 52°
2026-04-30 14:29 56.23848 63.44317 31134 ft 513 kts 52°
2026-04-30 14:29 56.28568 63.54082 29620 ft 515 kts 45°
2026-04-30 14:30 56.36252 63.67216 27696 ft 505 kts 44°
2026-04-30 14:31 56.41329 63.75851 26448 ft 498 kts 44°
2026-04-30 14:31 56.46316 63.84403 25228 ft 490 kts 44°
2026-04-30 14:31 56.48769 63.88655 24632 ft 487 kts 44°
2026-04-30 14:32 56.53618 63.97082 23445 ft 479 kts 43°
2026-04-30 14:32 56.55976 64.01175 22902 ft 473 kts 43°
2026-04-30 14:32 56.58335 64.05269 22403 ft 466 kts 43°
2026-04-30 14:33 56.60663 64.09312 21899 ft 460 kts 43°
2026-04-30 14:33 56.65220 64.17244 20962 ft 448 kts 44°
2026-04-30 14:33 56.67448 64.21147 20486 ft 443 kts 44°
2026-04-30 14:34 56.69651 64.25022 20017 ft 438 kts 44°
2026-04-30 14:34 56.71832 64.28861 19541 ft 434 kts 44°
2026-04-30 14:34 56.73971 64.32616 19062 ft 431 kts 44°
2026-04-30 14:34 56.76124 64.36393 18574 ft 429 kts 44°
2026-04-30 14:35 56.80395 64.43913 17541 ft 423 kts 44°
2026-04-30 14:35 56.82496 64.47640 17034 ft 420 kts 44°
2026-04-30 14:35 56.84580 64.51347 16532 ft 417 kts 44°
2026-04-30 14:36 56.86647 64.55034 16030 ft 414 kts 44°
2026-04-30 14:36 56.88703 64.58700 15526 ft 411 kts 44°
2026-04-30 14:36 56.90720 64.62292 15042 ft 409 kts 44°
2026-04-30 14:36 56.92768 64.65887 14541 ft 407 kts 43°
2026-04-30 14:37 56.94835 64.69399 14027 ft 405 kts 43°
2026-04-30 14:37 56.96911 64.72856 13477 ft 402 kts 42°
2026-04-30 14:37 56.98977 64.76281 12949 ft 398 kts 42°
2026-04-30 14:37 57.01019 64.79667 12443 ft 394 kts 42°
2026-04-30 14:38 57.03042 64.83026 11909 ft 390 kts 42°
2026-04-30 14:38 57.05037 64.86365 11378 ft 386 kts 42°
2026-04-30 14:38 57.07004 64.89693 10859 ft 382 kts 42°
2026-04-30 14:38 57.08927 64.92968 10642 ft 369 kts 42°
2026-04-30 14:39 57.10744 64.96073 10518 ft 355 kts 42°
2026-04-30 14:39 57.12519 64.99102 10394 ft 342 kts 42°
2026-04-30 14:39 57.14234 65.02022 10271 ft 330 kts 42°
2026-04-30 14:40 57.17491 65.07576 9763 ft 311 kts 42°
2026-04-30 14:40 57.19066 65.10277 9105 ft 307 kts 42°
2026-04-30 14:40 57.20621 65.12946 8478 ft 304 kts 43°
2026-04-30 14:40 57.22167 65.15588 8060 ft 301 kts 43°
2026-04-30 14:41 57.23667 65.18152 7550 ft 296 kts 43°
2026-04-30 14:41 57.25179 65.20757 7090 ft 296 kts 44°
2026-04-30 14:41 57.26676 65.23334 6723 ft 292 kts 44°
2026-04-30 14:41 57.28156 65.25875 6094 ft 289 kts 44°
2026-04-30 14:42 57.29618 65.28388 5635 ft 286 kts 44°
2026-04-30 14:42 57.31058 65.30874 5252 ft 282 kts 44°
2026-04-30 14:42 57.32494 65.33359 4877 ft 280 kts 44°
2026-04-30 14:42 57.33855 65.35829 4475 ft 276 kts 53°
2026-04-30 14:43 57.34649 65.38970 4095 ft 269 kts 82°
2026-04-30 14:43 57.34530 65.42332 3790 ft 260 kts 110°
2026-04-30 14:43 57.33623 65.45094 3618 ft 246 kts 136°
2026-04-30 14:43 57.32394 65.47184 3489 ft 234 kts 139°
2026-04-30 14:44 57.31213 65.49155 3369 ft 224 kts 139°
2026-04-30 14:44 57.30012 65.50894 3255 ft 215 kts 158°
2026-04-30 14:44 57.28595 65.51095 3129 ft 204 kts 198°
2026-04-30 14:44 57.27467 65.49647 2874 ft 202 kts 228°
2026-04-30 14:45 57.26557 65.47752 2669 ft 192 kts 229°
2026-04-30 14:45 57.25690 65.45957 2424 ft 181 kts 229°
2026-04-30 14:45 57.24871 65.44279 2197 ft 170 kts 229°
2026-04-30 14:45 57.24117 65.42739 1988 ft 154 kts 229°
2026-04-30 14:46 57.23421 65.41319 1769 ft 146 kts 229°
2026-04-30 14:46 57.22749 65.39950 1574 ft 143 kts 229°
2026-04-30 14:46 57.22083 65.38593 1384 ft 142 kts 229°
2026-04-30 14:46 57.21425 65.37252 1185 ft 141 kts 230°
2026-04-30 14:47 57.20771 65.35915 1004 ft 140 kts 230°
2026-04-30 14:47 57.20124 65.34605 810 ft 139 kts 229°
2026-04-30 14:47 57.19472 65.33281 622 ft 139 kts 229°
2026-04-30 14:47 57.18827 65.31959 408 ft 139 kts 229°
2026-04-30 14:48 57.18204 65.30702 370 ft 118 kts 227°
2026-04-30 14:48 57.17773 65.29830 380 ft 67 kts 227°
2026-04-30 14:48 57.17580 65.29443 386 ft 24 kts 229°
2026-04-30 14:48 57.17491 65.29333 386 ft 12 kts 160°
2026-04-30 14:49 57.17438 65.29421 387 ft 9 kts 136°
2026-04-30 14:49 57.17396 65.29496 387 ft 8 kts 133°
2026-04-30 14:49 57.17387 65.29585 386 ft 7 kts 71°
2026-04-30 14:49 57.17414 65.29651 386 ft 6 kts 49°
2026-04-30 14:50 57.17504 65.29833 385 ft 16 kts 47°
2026-04-30 14:50 57.17596 65.30020 383 ft 22 kts 48°
2026-04-30 14:51 57.17834 65.30503 377 ft 27 kts 47°
2026-04-30 14:51 57.17960 65.30759 373 ft 25 kts 47°
2026-04-30 14:51 57.18186 65.31216 363 ft 27 kts 48°
2026-04-30 14:52 57.18307 65.31461 356 ft 27 kts 48°
2026-04-30 14:52 57.18456 65.31911 351 ft 22 kts 88°
2026-04-30 14:52 57.18461 65.32213 333 ft 25 kts 88°
2026-04-30 14:53 57.18470 65.32720 330 ft 13 kts 89°
2026-04-30 14:53 57.18472 65.32867 330 ft 10 kts 87°
2026-04-30 14:54 57.18475 65.32987 333 ft 0 kts 87°
2026-04-30 14:54 57.18477 65.33036 333 ft 12 kts 88°
2026-04-30 14:55 57.18569 65.33269 337 ft 7 kts 46°
2026-04-30 14:55 57.18593 65.33315 337 ft 6 kts 46°
2026-04-30 14:55 57.18618 65.33519 340 ft 8 kts 90°
2026-04-30 14:56 57.18583 65.33664 337 ft 5 kts 135°
2026-04-30 14:56 57.18535 65.33751 339 ft 6 kts 135°
2026-04-30 14:57 57.18495 65.33826 337 ft 11 kts 135°
2026-04-30 14:57 57.18378 65.34042 336 ft 13 kts 135°
2026-04-30 14:58 57.18208 65.34357 338 ft 21 kts 135°
2026-04-30 14:58 57.18133 65.34493 338 ft 10 kts 135°
2026-04-30 14:58 57.18110 65.34635 340 ft 4 kts 48°
2026-04-30 14:59 57.18134 65.34695 337 ft 0 kts 56°